Tracking 25954 objects as of 14-Aug-2022
HD Live streaming from Space Station
objects crossing your sky now

DIADEME 2

Track DIADEME 2 now!
10-day predictions
DIADEME 2 is classified as:


NORAD ID: 2680
Int'l Code: 1967-014A
Perigee: 587.1 km
Apogee: 1,656.7 km
Inclination: 39.4 °
Period: 107.6 minutes
Semi major axis: 7492 km
RCS: 0.6374 m2 (medium)
Launch date: February 15, 1967
Source: France (FR)
Launch site: HAMMA GUIRA SPACE TRACK RANGE (HGSTR)
aabbcc
Your satellite tracking list
Your tracking list is empty




NASA's NSSDC Master Catalog

Two Line Element Set (TLE):
1 02680U 67014A   22226.36591778  .00000670  00000-0  30537-3 0  9998
2 02680  39.4398 208.2100 0713737 337.4933  19.5895 13.38533977687734
Source of the keplerian elements: AFSPC